Regional Weather Roundup
Issued by NWS Charleston, SC

Current Version | Previous Version | Text Only | Print | Product List | Glossary Off
Versions: 1 2 3 4 5 6 7 8 9 10 11 12 13 14 15 16 17 18 19 20 21 22 23 24 25 26 27 28 29 30 31 32 33 34 35 36 37 38 39 40 41 42 43 44 45 46 47 48 49 50

000
ASUS42 KCHS 210912
RWRCHS

Regional Weather Roundup
National Weather Service Charleston SC
500 AM EDT SAT APR 21 2018

NOTE: "fair" indicates few or no clouds below 12,000 feet with no
significant weather and/or obstructions to visibility.

Not all stations are quality controlled. Use data with caution,
especially dewpoint observations.

SCZ027-030-031-034>040-042>050-211000-
...Southeast South Carolina...

CITY           SKY/WX    TMP DP  RH WIND       PRES   REMARKS
N Charleston   FAIR      48  44  86 NE6       30.32R
Waterfront Prk NOT AVBL
Mount Pleasant FAIR      46  45  93 CALM      30.32S
Johns Island   FAIR      57  43  58 E9        30.31S
Pinopolis        N/A     52  46  82 E5        30.24R
Moncks Corner  FAIR      43  41  93 NE5       30.33R
Summerville    FAIR      41  41 100 CALM      30.34R
Beaufort MCAS  FAIR      55  50  83 NE8       30.30R
Beaufort Arpt  FAIR      55  43  62 E8        30.30R
Hilton Head Is FAIR      61  45  55 E9G18     30.29S
Walterboro     FAIR      41  36  81 CALM      30.34R
Allendale      FAIR      46  43  87 CALM      30.32R

...Southern Midlands and Pee Dee...

CITY           SKY/WX    TMP DP  RH WIND       PRES   REMARKS
Georgetown     FAIR      52  41  66 E5        30.34S
Kingstree      FAIR      39  37  93 CALM      30.35R
Orangeburg     FAIR      40  38  93 CALM      30.34R
Barnwell       FAIR      39  37  93 CALM      30.33R
Aiken          FAIR      37  34  87 CALM      30.36S
Manning        FAIR      36  34  93 CALM      30.35R
Columbia       FAIR      41  39  93 CALM      30.34R
Sumter         FAIR      40  37  87 CALM      30.33R
Florence       FAIR      43  40  89 NE3       30.36R
Myrtle Beach   FAIR      57  42  57 E8        30.36R
N Myrtle Beach FAIR      44  42  93 NE3       30.35R

$$

GAZ063-065-086>088-099>101-113>116-118-119-134>141-150-211000-
...Southeast Georgia...

CITY           SKY/WX    TMP DP  RH WIND       PRES   REMARKS
Savannah Arpt  FAIR      50  47  89 N6        30.29R
Hunter AAF     FAIR      59  42  53 NE8       30.25R
Fort Stewart   FAIR      52  47  85 N7        30.25S
Statesboro     FAIR      44  32  63 CALM      30.30R
Sylvania       FAIR      46  45  93 E3        30.31R
Claxton        FAIR      45  44  97 CALM      30.29S

...CSRA, Central and far Southeast Georgia...

CITY           SKY/WX    TMP DP  RH WIND       PRES   REMARKS
Thomson        FAIR      37  35  94 CALM      30.38R
Augusta-Bush   FAIR      38  37  97 CALM      30.33R
Augusta-Daniel FAIR      50  40  68 E3        30.33R
Swainsboro     FAIR      45  43  93 E3        30.31R
Vidalia        FAIR      50  48  93 NE5       30.29S
Eastman        FAIR      46  38  76 CALM      30.31S
Hazlehurst     FAIR      53  47  80 E3        30.26S
Alma           MOCLDY    56  49  77 VRB3      30.25R
Waycross       CLOUDY    55  52  89 NE5       30.24S
Jesup          NOT AVBL
Baxley         MOCLDY    52  50  93 NE5       30.26R
Brunswick      CLOUDY    63  48  59 NE10      30.24S
Saint Simons   CLOUDY    64  52  64 NE14      30.23S

$$

SCZ027-028-034-036>038-045-046-048>050-GAZ119-141-211000-
...Lake and Supplemental Coastal Observations...

STATION/POSITION TIME  TEMP    WIND        PRES    WAVE   SWELL
                       AIR SEA DIR/SP/G            HT/PER HT/PER/DIR
                 (UTC) (F)     (DEG/KT/KT) (MB)    (FT/S) (FT/S/D)
Winyah Bay       0745   60      90/ 10     1026.0
Lake Murray      0820   48      CALM  /  1 1026.4
ACE Basin NERRS  0745   53        CALM       N/A
Fort Pulaski     0836   63 65   80/ 18/ 23 1025.6R
Sapelo Island    0800   62      60/ 11     1024.0

$$

ANZ835-935-AMZ111-154-330-350-352-354-370-450-454-472-211000-
...C-MAN and Buoy Observations...

STATION/POSITION TIME  TEMP    WIND        PRES    WAVE   SWELL
                       AIR SEA DIR/SP/G            HT/PER HT/PER/DIR
                 (UTC) (F)     (DEG/KT/KT) (MB)    (FT/S) (FT/S/D)
Buoy 41004       0850   63 67   70/ 17/ 21 1025.8R   5/ 9   3/100/ 9
Buoy 41008       0850   65 64   70/ 17/ 19 1023.3S   5/ 6   2/170/16
Folly Beach CMAN 0800   61      80/ 18/ 20 1026.5R
Capers Nearshore 0808   62 63   90/ 16/ 21 1026.2R
Fripp Nearshore  0808   62 63   80/ 16/ 25 1024.8R


STATION/POSITION TIME  TEMP    WIND        PRES    WAVE   SWELL
                       AIR SEA DIR/SP/G            HT/PER HT/PER/DIR
                 (UTC) (F)     (DEG/KT/KT) (MB)    (FT/S) (FT/S/D)
5E St. Marys GA  0900      66                N/A     6/ 6   2/ 80/11
Frying Pan Buoy  0850   62 66   70/ 14/ 17 1027.1R   3/ 9   2/ 90/ 9
Buoy 41025       0900   56 69   20/ 12/ 14 1028.5
Cape Lookout NC  0800           50/ 13/ 15 1028.5R
Buoy 41002       0850   62 71   50/ 12/ 16 1025.1F   6/ 8   5/ 10/ 8
Buoy 41010       0850   72 74   60/ 21/ 27 1021.1R   9/ 8   5/ 30/ 9
St Augustine FL  0900   69 66  110/ 13/ 15 1021.4R


$$




USA.gov is the U.S. government's official web portal to all federal, state and local government web resources and services.